Simultaneous Nadir Overpasses (SNOs) Predictions

Prediction of SNOs between AQUA and NPP Satellite Orbit:

Table of predicted SNOs for the next 14.0 days since TLE Epoch: 2/18/2023
Index Date (AQUA) Time (AQUA) Lat,Lon (AQUA) SZA (AQUA ) Date (NPP) Time (NPP) Lat,Lon (NPP) SZA (NPP ) Distance(km) Time Diff (sec)
1 02/18/2023 14:56:56 79.23,-148.46 104.66 02/18/2023 14:55:43 79.23,-148.54 104.74 1.76 73
2 02/18/2023 15:46:15 -79.49, 20.91 75.72 02/18/2023 15:46:21 -79.48, 20.77 75.70 3.04 6
3 02/21/2023 06:22:18 -79.47, 161.77 76.62 02/21/2023 06:21:46 -79.47, 161.83 76.61 1.41 32
4 02/21/2023 07:11:38 79.65, -29.29 103.10 02/21/2023 07:12:25 79.64, -29.38 103.09 1.93 47
5 02/23/2023 20:58:21 -79.35, -58.03 77.40 02/23/2023 20:57:13 -79.35, -57.96 77.37 1.68 68
6 02/23/2023 21:47:40 79.56, 111.12 102.27 02/23/2023 21:47:51 79.56, 111.06 102.28 1.37 11
7 02/26/2023 12:23:40 79.53,-108.07 101.34 02/26/2023 12:23:16 79.54,-108.00 101.35 1.38 24
8 02/26/2023 13:13:00 -79.75, 61.16 79.00 02/26/2023 13:13:55 -79.74, 61.15 79.04 0.27 55
9 03/01/2023 02:59:42 79.37, 31.82 100.59 03/01/2023 02:58:45 79.37, 31.81 100.64 0.27 57
10 03/01/2023 03:49:01 -79.63,-158.71 79.81 03/01/2023 03:49:23 -79.62,-158.80 79.81 1.86 22
11 03/03/2023 18:25:00 -79.52, -18.44 80.65 03/03/2023 18:24:50 -79.52, -18.51 80.63 1.37 10



Historial Predications of SNOs between AQUA and NPP
